• Join FlightAware (Why Join?)
  • Login
  • US Flag GB Flag 
06:56 EDT


 

Airport Tracker/Info


-or-


 

Live Flight TrackerFlight Track Log ✈ SWA2236 ✈ 17-Jul-2013 ✈ KDAL - KABQ

Flight Track Log - Related Links

Times and Time Zones

All times are in EDT time to prevent confusion due to time zone crossing. See the SWA2236 flight status page for this flight to view local times or setup timezone preferences in your user account.

Time Position Orientation Groundspeed Altitude Reporting Facility
EDT Latitude Longitude Course Direction KTS MPH feet Rate Location/Type
07:15 32.8333 -96.8333 121° Southeast 158 182 1,700  Level Dallas / Fort Worth TRACON
07:15 32.8167 -96.8000 121° Southeast 169 194 2,900 1,860 Climbing Dallas / Fort Worth TRACON
07:16 32.7667 -96.7667 151° Southeast 233 268 4,900 2,280 Climbing Dallas / Fort Worth TRACON
07:17 32.7167 -96.8333 228° Southwest 307 353 7,500 3,180 Climbing Dallas / Fort Worth TRACON
07:18 32.7167 -96.9500 270° West 316 364 11,600 3,300 Climbing Dallas / Fort Worth TRACON
07:19 32.7333 -97.0500 281° West 331 381 14,400 2,340 Climbing Dallas / Fort Worth TRACON
07:21 32.7539 -97.1739 281° West 364 419 16,500 2,280 Climbing Fort Worth Center
07:22 32.7833 -97.3144 284° West 391 450 19,200 2,400 Climbing Fort Worth Center
07:23 32.8083 -97.4308 284° West 401 461 21,300 2,400 Climbing Fort Worth Center
07:24 32.8583 -97.5817 292° West 415 478 24,000 2,160 Climbing Fort Worth Center
07:25 32.9061 -97.7153 293° West 435 501 25,700 1,440 Climbing Fort Worth Center
07:26 32.9411 -97.8244 291° West 443 510 26,900 1,320 Climbing Fort Worth Center
07:27 32.9908 -97.9781 291° West 449 517 28,400 1,500 Climbing Fort Worth Center
07:28 33.0233 -98.1319 284° West 461 531 30,000 1,800 Climbing Fort Worth Center
07:29 33.0453 -98.2833 280° West 468 539 32,100 1,800 Climbing Fort Worth Center
07:30 33.0692 -98.4297 281° West 468 539 33,700 1,620 Climbing Fort Worth Center
07:31 33.0972 -98.5864 282° West 450 518 35,400 1,560 Climbing Fort Worth Center
07:32 33.1228 -98.7356 282° West 450 518 36,900 1,260 Climbing Fort Worth Center
07:33 33.1567 -98.8800 286° West 450 518 38,000 540 Climbing Fort Worth Center
07:34 33.2050 -99.0172 293° West 450 518 38,000  Level Fort Worth Center
07:35 33.2553 -99.1547 294° West 450 518 38,000  Level Fort Worth Center
07:36 33.3056 -99.2900 294° West 450 518 38,000  Level Fort Worth Center
07:37 33.3536 -99.4253 293° West 450 518 38,000  Level Fort Worth Center
07:38 33.4014 -99.5608 293° West 450 518 38,000  Level Fort Worth Center
07:39 33.4511 -99.7014 293° West 445 512 38,000  Level Fort Worth Center
07:40 33.4967 -99.8347 292° West 445 512 38,000  Level Fort Worth Center
07:41 33.5439 -99.9731 292° West 445 512 38,000  Level Fort Worth Center
07:42 33.5914 -100.1039 294° West 440 506 38,000  Level Fort Worth Center
07:43 33.6364 -100.2400 292° West 440 506 38,000  Level Fort Worth Center
07:44 33.6833 -100.3739 293° West 440 506 38,000  Level Fort Worth Center
07:45 33.7300 -100.5103 292° West 440 506 38,000  Level Fort Worth Center
07:46 33.7747 -100.6469 292° West 440 506 38,000  Level Fort Worth Center
07:47 33.8233 -100.7836 293° West 440 506 38,000  Level Fort Worth Center
07:48 33.8694 -100.9231 292° West 440 506 38,000  Level Fort Worth Center
07:49 33.9197 -101.0628 293° West 440 506 38,000  Level Fort Worth Center
07:50 33.9578 -101.1894 290° West 451 519 38,000  Level Fort Worth Center
07:51 34.0094 -101.3422 292° West 457 526 38,000  Level Fort Worth Center
07:52 34.0533 -101.4694 293° West 452 520 38,000  Level Fort Worth Center
07:53 34.1044 -101.6247 292° West 457 526 38,000  Level Fort Worth Center
07:54 34.1461 -101.7522 292° West 457 526 38,000  Level Fort Worth Center
07:54 34.1856 -101.8772 291° West 453 521 38,000  Level Albuquerque Center
07:55 34.2328 -102.0217 292° West 457 526 38,000  Level Albuquerque Center
07:56 34.2803 -102.1681 291° West 463 533 38,000  Level Albuquerque Center
07:57 34.3286 -102.3164 292° West 469 540 38,000  Level Albuquerque Center
07:58 34.3761 -102.4639 291° West 469 540 38,000  Level Albuquerque Center
07:59 34.4242 -102.6142 291° West 474 545 38,000  Level Albuquerque Center
08:00 34.4719 -102.7656 291° West 478 550 38,000  Level Albuquerque Center
08:01 34.5072 -102.9181 286° West 471 542 38,000  Level Albuquerque Center
08:02 34.5239 -103.0794 277° West 475 547 38,000  Level Albuquerque Center
08:03 34.5431 -103.2400 278° West 476 548 38,000  Level Albuquerque Center
08:04 34.5633 -103.4008 279° West 477 549 38,000  Level Albuquerque Center
08:05 34.5819 -103.5636 278° West 481 554 38,000  Level Albuquerque Center
08:06 34.6183 -103.7242 285° West 489 563 38,000  Level Albuquerque Center
08:07 34.6583 -103.8858 287° West 494 568 38,000  Level Albuquerque Center
08:08 34.6975 -104.0481 286° West 494 568 38,000 -240 Level Albuquerque Center
08:09 34.7367 -104.2117 286° West 496 571 37,600 -660 Descending Albuquerque Center
08:10 34.7764 -104.3767 286° West 499 574 36,700 -840 Descending Albuquerque Center
08:12 34.8172 -104.5458 286° West 509 586 36,000 -360 Descending Albuquerque Center
08:13 34.8453 -104.7164 281° West 508 585 36,000 -240 Level Albuquerque Center
08:14 34.8625 -104.8878 277° West 504 580 35,600 -1,380 Descending Albuquerque Center
08:15 34.8806 -105.0614 277° West 508 585 33,300 -2,400 Descending Albuquerque Center
08:16 34.8958 -105.2092 277° West 517 595 30,800 -2,400 Descending Albuquerque Center
08:17 34.9139 -105.3819 277° West 513 590 28,500 -2,220 Descending Albuquerque Center
08:18 34.9306 -105.5431 277° West 487 560 26,400 -3,000 Descending Albuquerque Center
08:19 34.9436 -105.7008 276° West 469 540 22,500 -4,200 Descending Albuquerque Center
08:19 34.9636 -105.8089 283° West 473 544 19,900 -2,820 Descending Albuquerque Center
08:20 35.0061 -105.9611 289° West 433 498 17,900 -1,860 Descending Albuquerque Center
08:21 35.0308 -106.0972 283° West 410 472 16,000 -960 Descending Albuquerque Center
08:22 35.0322 -106.2372 271° West 367 422 16,000 -720 Level Albuquerque Center
08:23 35.0197 -106.3467 262° West 333 383 14,600 -1,740 Descending Albuquerque Center
08:24 34.9800 -106.4481 244° Southwest 324 373 12,600 -2,040 Descending Albuquerque Center
08:25 34.9417 -106.5461 245° Southwest 308 354 10,500 -2,040 Descending Albuquerque Center
08:26 34.9097 -106.6319 246° West 259 298 8,500 -1,320 Descending Albuquerque Center
08:27 34.9314 -106.6939 293° West 186 214 7,700 -960 Descending Albuquerque Center
08:28 34.9767 -106.6847 North 155 178 6,500 -960 Descending Albuquerque Center
08:29 35.0067 -106.6486 45° Northeast 146 168 5,800 -540 Descending Albuquerque Center
08:31 35.0428 -106.6053 44° Northeast 158 182 5,300 -420 Descending Albuquerque Center